Tacoma, WA
on Thursday, November 15, 2012

Thursday
Previous Day Next Day
Daily Summary
 ActualAverage (KSEA)Record (KSEA)
Temperature
Mean Temperature °F 46°F  
Max Temperature 45°F 51°F 62°F (2001)
Min Temperature 32°F 40°F 6°F (1955)
Degree Days
Heating Degree Days 26 19  
Month to date heating degree days 268  
Since 1 July heating degree days 865  
Cooling Degree Days 0 0  
Month to date cooling degree days 0  
Year to date cooling degree days 189  
Moisture
Dew Point 39°F   
Average Humidity 98    
Maximum Humidity 100    
Minimum Humidity 87    
Precipitation
Precipitation 0.00 in 0.23 in 1.09 in (2007)
Month to date precipitation 3.19  
Year to date precipitation 28.76  
Snow
Snow 0.00 in in 0.20 in (1975)
Month to date snowfall  
Since 1 July snowfall  
Snow Depth in   
Wind
Wind Speed 2 mph   
Max Wind Speed 6 mph   
Max Gust Speed mph   
Visibility 2 miles   
Events Fog   

Key: T is trace of precipitation, MM is missing value
Source: NWS Daily Summary
Time(PST)TemperatureDew PointHumidity Pressure Visibility Wind DirectionWind SpeedGust SpeedPrecipitationEvents Conditions
12:03 AM 33.8°F 33.8°F 100% 30.26 in 0.2 miles South 3.5 mph - N/A Fog Fog
12:04 AM 33.8°F 33.8°F 100% 30.26 in 0.2 miles South 3.5 mph - N/A Fog Fog
12:09 AM 32.0°F 32.0°F 100% 30.26 in 0.5 miles SSW 2.3 mph - N/A Fog Fog
12:14 AM 32.0°F 32.0°F 100% 30.26 in 0.5 miles South 2.3 mph - N/A Fog Fog
12:24 AM 33.8°F 33.8°F 100% 30.26 in 0.2 miles South 1.2 mph - N/A Fog Fog
12:29 AM 33.8°F 32.0°F 93% 30.26 in 0.2 miles Calm Calm - N/A Fog Fog
12:39 AM 35.6°F 33.8°F 93% 30.25 in 0.2 miles Calm Calm - N/A Fog Fog
12:43 AM 35.6°F 33.8°F 93% 30.25 in 0.5 miles Calm Calm - N/A Fog Fog
12:58 AM 35.1°F 34.9°F 99% 30.25 in 0.5 miles Calm Calm - 0.00 in Fog Fog
1:13 AM 35.6°F 33.8°F 93% 30.25 in 0.5 miles South 2.3 mph - N/A Fog Fog
1:18 AM 35.6°F 35.6°F 100% 30.25 in 0.5 miles South 1.2 mph - N/A Fog Fog
1:23 AM 35.6°F 35.6°F 100% 30.24 in 0.8 miles South 1.2 mph - N/A   Mist
1:33 AM 35.6°F 35.6°F 100% 30.24 in 0.5 miles Calm Calm - N/A Fog Fog
1:38 AM 35.6°F 35.6°F 100% 30.24 in 0.2 miles Calm Calm - N/A Fog Fog
1:39 AM 35.6°F 35.6°F 100% 30.24 in 0.2 miles Calm Calm - N/A Fog Fog
1:47 AM 35.6°F 35.6°F 100% 30.23 in 0.2 miles Calm Calm - N/A Fog Fog
1:52 AM 35.6°F 35.6°F 100% 30.23 in 0.2 miles Calm Calm - N/A Fog Fog
1:58 AM 36.1°F 35.8°F 99% 30.25 in 0.2 miles Calm Calm - 0.00 in Fog Fog
2:08 AM 35.6°F 35.6°F 100% 30.23 in 0.2 miles Variable 1.2 mph - N/A Fog Fog
2:23 AM 35.6°F 35.6°F 100% 30.23 in 0.2 miles North 1.2 mph - N/A Fog Fog
2:28 AM 35.6°F 35.6°F 100% 30.23 in 0.5 miles North 2.3 mph - N/A Fog Fog
2:33 AM 35.6°F 35.6°F 100% 30.23 in 0.5 miles North 2.3 mph - N/A Fog Fog
2:38 AM 35.6°F 35.6°F 100% 30.23 in 0.5 miles North 2.3 mph - N/A Fog Fog
2:53 AM 35.6°F 35.6°F 100% 30.22 in 0.5 miles North 2.3 mph - N/A Fog Fog
2:58 AM 36.1°F 35.8°F 99% 30.24 in 0.5 miles North 3.5 mph - N/A Fog Fog
3:03 AM 35.6°F 35.6°F 100% 30.22 in 0.2 miles North 2.3 mph - N/A Fog Fog
3:08 AM 35.6°F 35.6°F 100% 30.22 in 0.2 miles NNE 1.2 mph - N/A Fog Fog
3:28 AM 35.6°F 33.8°F 93% 30.21 in 0.2 miles Calm Calm - N/A Fog Fog
3:43 AM 35.6°F 35.6°F 100% 30.20 in 0.5 miles Calm Calm - N/A Fog Fog
3:53 AM 35.6°F 35.6°F 100% 30.20 in 0.5 miles South 1.2 mph - N/A Fog Fog
3:58 AM 35.2°F 35.1°F 99% 30.22 in 0.8 miles South 3.5 mph - N/A   Mist
4:03 AM 35.6°F 35.6°F 100% 30.20 in 0.8 miles SSW 2.3 mph - N/A   Mist
4:13 AM 35.6°F 35.6°F 100% 30.20 in 1.0 miles SSE 2.3 mph - N/A   Mist
4:18 AM 35.6°F 35.6°F 100% 30.20 in 1.5 miles Calm Calm - N/A   Overcast
4:23 AM 35.6°F 35.6°F 100% 30.19 in 2.0 miles WSW 2.3 mph - N/A   Overcast
4:28 AM 35.6°F 35.6°F 100% 30.19 in 2.5 miles SW 2.3 mph - N/A   Overcast
4:33 AM 37.4°F 35.6°F 93% 30.19 in 2.0 miles SSW 1.2 mph - N/A   Overcast
4:53 AM 37.4°F 37.4°F 100% 30.18 in 1.8 miles South 2.3 mph - N/A   Overcast
4:58 AM 37.4°F 37.4°F 100% 30.20 in 1.8 miles SSW 1.2 mph - N/A   Overcast
5:03 AM 37.4°F 37.4°F 100% 30.18 in 2.0 miles SSW 2.3 mph - N/A   Overcast
5:08 AM 37.4°F 37.4°F 100% 30.18 in 1.8 miles South 2.3 mph - N/A   Overcast
5:13 AM 37.4°F 37.4°F 100% 30.18 in 1.2 miles SSW 2.3 mph - N/A   Overcast
5:33 AM 37.4°F 37.4°F 100% 30.17 in 1.2 miles Calm Calm - N/A   Overcast
5:43 AM 37.4°F 37.4°F 100% 30.17 in 1.0 miles Calm Calm - N/A   Mist
5:53 AM 37.4°F 37.4°F 100% 30.16 in 1.2 miles NE 2.3 mph - N/A   Overcast
5:58 AM 39.2°F 39.2°F 100% 30.18 in 1.8 miles NNE 2.3 mph - N/A   Overcast
6:03 AM 41.0°F 39.2°F 93% 30.16 in 4.0 miles NE 3.5 mph - N/A   Overcast
6:13 AM 41.0°F 41.0°F 100% 30.16 in 2.5 miles Variable 2.3 mph - N/A   Overcast
6:18 AM 41.0°F 41.0°F 100% 30.16 in 1.8 miles Variable 2.3 mph - N/A   Overcast
6:23 AM 41.0°F 41.0°F 100% 30.16 in 1.2 miles NE 4.6 mph - N/A   Overcast
6:28 AM 41.0°F 41.0°F 100% 30.16 in 1.0 miles NE 5.8 mph - N/A   Mist
6:43 AM 41.0°F 39.2°F 93% 30.15 in 0.8 miles Variable 5.8 mph - N/A   Mist
6:58 AM 40.1°F 39.9°F 99% 30.17 in 0.8 miles NE 5.8 mph - N/A   Mist
7:03 AM 41.0°F 39.2°F 93% 30.15 in 0.8 miles NE 3.5 mph - N/A   Mist
7:08 AM 39.2°F 39.2°F 100% 30.15 in 0.5 miles Variable 3.5 mph - N/A Fog Fog
7:13 AM 39.2°F 39.2°F 100% 30.15 in 0.2 miles NE 4.6 mph - N/A Fog Fog
7:18 AM 39.2°F 39.2°F 100% 30.14 in 0.5 miles NE 5.8 mph - N/A Fog Fog
7:23 AM 39.2°F 39.2°F 100% 30.14 in 0.5 miles Variable 3.5 mph - N/A Fog Fog
7:33 AM 39.2°F 39.2°F 100% 30.14 in 0.5 miles East 2.3 mph - N/A Fog Fog
7:38 AM 41.0°F 39.2°F 93% 30.14 in 0.5 miles NE 2.3 mph - N/A Fog Fog
7:53 AM 41.0°F 39.2°F 93% 30.14 in 0.5 miles Variable 3.5 mph - N/A Fog Fog
7:58 AM 40.5°F 40.1°F 99% 30.16 in 0.5 miles ENE 2.3 mph - N/A Fog Fog
8:03 AM 41.0°F 41.0°F 100% 30.14 in 0.8 miles East 2.3 mph - N/A   Mist
8:13 AM 41.0°F 41.0°F 100% 30.14 in 0.8 miles Variable 2.3 mph - N/A   Mist
8:18 AM 41.0°F 41.0°F 100% 30.13 in 1.0 miles ENE 2.3 mph - N/A   Mist
8:23 AM 41.0°F 41.0°F 100% 30.13 in 1.8 miles SE 2.3 mph - N/A   Overcast
8:33 AM 41.0°F 41.0°F 100% 30.13 in 2.5 miles NE 2.3 mph - N/A   Overcast
8:38 AM 41.0°F 41.0°F 100% 30.13 in 4.0 miles East 2.3 mph - N/A   Overcast
8:58 AM 40.1°F 39.9°F 99% 30.14 in 7.0 miles NE 3.5 mph - N/A   Overcast
9:58 AM 40.8°F 40.6°F 99% 30.12 in 4.0 miles East 2.3 mph - N/A   Overcast
10:53 AM 41.0°F 41.0°F 100% 30.09 in 8.0 miles NE 2.3 mph - N/A   Overcast
10:58 AM 41.4°F 41.4°F 100% 30.11 in 8.0 miles ENE 2.3 mph - N/A   Overcast
11:03 AM 41.0°F 41.0°F 100% 30.08 in 8.0 miles NE 4.6 mph - N/A   Overcast
11:53 AM 42.8°F 42.8°F 100% 30.05 in 10.0 miles Variable 1.2 mph - N/A   Overcast
11:58 AM 43.0°F 43.0°F 100% 30.07 in 10.0 miles North - - N/A   Overcast
12:38 PM 42.8°F 42.8°F 100% 30.04 in 10.0 miles Variable 2.3 mph - N/A   Overcast
12:48 PM 44.6°F 42.8°F 93% 30.03 in 10.0 miles Variable 1.2 mph - N/A   Overcast
12:58 PM 44.1°F 42.3°F 93% 30.05 in 10.0 miles Variable 1.2 mph - N/A   Overcast
1:58 PM 45.1°F 41.5°F 87% 30.05 in 10.0 miles South 2.3 mph - N/A   Overcast
2:23 PM 44.6°F 42.8°F 93% 30.02 in 10.0 miles South 5.8 mph - N/A   Overcast
2:36 PM 44.6°F 41.0°F 87% 30.02 in 10.0 miles South 3.5 mph - N/A   Overcast
2:58 PM 44.6°F 42.1°F 91% 30.03 in 10.0 miles South 5.8 mph - N/A   Overcast
3:08 PM 44.6°F 41.0°F 87% 30.01 in 10.0 miles South 5.8 mph - N/A   Overcast
3:18 PM 44.6°F 41.0°F 87% 30.01 in 10.0 miles South 5.8 mph - N/A   Overcast
3:38 PM 42.8°F 42.8°F 100% 30.01 in 10.0 miles South 3.5 mph - N/A   Overcast
3:53 PM 42.8°F 42.8°F 100% 30.01 in 10.0 miles South 3.5 mph - N/A   Overcast
3:58 PM 42.8°F 41.9°F 97% 30.03 in 10.0 miles South 3.5 mph - N/A   Overcast
4:08 PM 42.8°F 41.0°F 93% 30.00 in 10.0 miles East 2.3 mph - N/A   Overcast
4:58 PM 41.9°F 40.8°F 96% 30.02 in 10.0 miles West 1.2 mph - N/A   Overcast
5:03 PM 42.8°F 41.0°F 93% 30.00 in 10.0 miles Variable 3.5 mph - N/A   Overcast
5:58 PM 41.5°F 40.8°F 97% 30.02 in 8.0 miles Variable 2.3 mph - N/A   Overcast
6:58 PM 40.3°F 39.9°F 99% 30.00 in 6.0 miles South 2.3 mph - N/A   Overcast
7:58 PM 40.5°F 40.3°F 99% 29.99 in 5.0 miles South 3.5 mph - N/A   Overcast
8:43 PM 41.0°F 39.2°F 93% 29.97 in 3.0 miles SSW 3.5 mph - N/A   Overcast
8:48 PM 41.0°F 39.2°F 93% 29.97 in 2.5 miles SW 3.5 mph - N/A   Overcast
8:53 PM 41.0°F 41.0°F 100% 29.97 in 1.8 miles SW 3.5 mph - N/A   Overcast
8:58 PM 40.5°F 40.3°F 99% 29.99 in 1.2 miles SW 4.6 mph - N/A   Overcast
9:03 PM 41.0°F 41.0°F 100% 29.97 in 0.8 miles SW 3.5 mph - N/A   Mist
9:08 PM 41.0°F 41.0°F 100% 29.97 in 0.8 miles SW 3.5 mph - N/A   Mist
9:13 PM 41.0°F 39.2°F 93% 29.97 in 0.5 miles SW 3.5 mph - N/A Fog Fog
9:18 PM 41.0°F 39.2°F 93% 29.97 in 0.5 miles WSW 2.3 mph - N/A Fog Fog
9:23 PM 41.0°F 39.2°F 93% 29.97 in 0.5 miles WSW 3.5 mph - N/A Fog Fog
9:28 PM 41.0°F 39.2°F 93% 29.96 in 0.5 miles SW 2.3 mph - N/A Fog Fog
9:33 PM 41.0°F 39.2°F 93% 29.96 in 0.2 miles West 1.2 mph - N/A Fog Fog
9:38 PM 41.0°F 39.2°F 93% 29.96 in 0.2 miles West 2.3 mph - N/A Fog Fog
9:43 PM 41.0°F 39.2°F 93% 29.96 in 0.5 miles WNW 2.3 mph - N/A Fog Fog
9:48 PM 41.0°F 39.2°F 93% 29.96 in 0.5 miles Calm Calm - N/A Fog Fog
9:53 PM 41.0°F 39.2°F 93% 29.96 in 0.5 miles Variable 1.2 mph - N/A Fog Fog
9:58 PM 40.1°F 39.9°F 99% 29.98 in 0.5 miles Calm Calm - N/A Fog Fog
10:03 PM 41.0°F 39.2°F 93% 29.96 in 0.5 miles South 2.3 mph - N/A Fog Fog
10:13 PM 39.2°F 39.2°F 100% 29.96 in 0.5 miles SSE 2.3 mph - N/A Fog Fog
10:23 PM 39.2°F 39.2°F 100% 29.96 in 0.5 miles South 2.3 mph - N/A Fog Fog
10:28 PM 39.2°F 39.2°F 100% 29.96 in 0.5 miles SE 2.3 mph - N/A Fog Fog
10:33 PM 41.0°F 39.2°F 93% 29.96 in 0.5 miles SE 2.3 mph - N/A Fog Fog
10:38 PM 39.2°F 39.2°F 100% 29.96 in 0.5 miles SSE 2.3 mph - N/A Fog Fog
10:43 PM 39.2°F 39.2°F 100% 29.96 in 0.5 miles ESE 3.5 mph - N/A Fog Fog
10:48 PM 39.2°F 39.2°F 100% 29.95 in 0.5 miles SE 3.5 mph - N/A Fog Fog
10:51 PM 39.2°F 39.2°F 100% 29.95 in 0.5 miles SE 2.3 mph - N/A Fog Fog
10:56 PM 39.2°F 39.2°F 100% 29.95 in 0.5 miles Variable 1.2 mph - N/A Fog Fog
10:58 PM 39.9°F 39.7°F 99% 29.97 in 0.8 miles Variable 1.2 mph - 0.00 in   Mist
11:08 PM 39.2°F 39.2°F 100% 29.95 in 0.8 miles SE 2.3 mph - N/A   Mist
11:13 PM 39.2°F 39.2°F 100% 29.95 in 1.0 miles SSE 2.3 mph - N/A   Mist
11:18 PM 39.2°F 39.2°F 100% 29.95 in 0.8 miles SE 3.5 mph - N/A   Mist
11:28 PM 39.2°F 39.2°F 100% 29.95 in 0.8 miles South 1.2 mph - N/A   Mist
11:29 PM 39.2°F 39.2°F 100% 29.95 in 0.5 miles South 2.3 mph - N/A Fog Fog
11:34 PM 39.2°F 39.2°F 100% 29.95 in 0.5 miles SE 2.3 mph - N/A Fog Fog
11:44 PM 39.2°F 39.2°F 100% 29.95 in 0.5 miles Variable 1.2 mph - N/A Fog Fog
11:54 PM 39.2°F 39.2°F 100% 29.95 in 0.5 miles SSE 2.3 mph - N/A Fog Fog
11:58 PM 39.0°F 38.8°F 99% 29.97 in 0.5 miles South 2.3 mph - 0.00 in Fog Fog
Moon Phase
Nov. 15 Nov. 20 Nov. 28 Dec. 06 Dec. 13
Sunrise:07:14 AM (PST) Moon Rise:09:20 AM (PST)11/15
Sunset:04:34 PM (PST) Moon Set:06:27 PM (PST)11/15

Copyright © 2014 The Weather Underground, Inc.